Location: Poprad
(49.0500°N, 20.3000°E)
Time: 18:31:05
(UTC+02:00)

ITUPSAT 1 - Pass Details

Date: 03 May 2024
Orbit: 694 x 707 km, 98.5° (Epoch: 20 May)

Event Time Altitude Azimuth Distance (km) Brightness Sun altitude
Rises 22:39:40 0° 16° (NNE) 3,084 ? -20.0°
Reaches altitude 10° 22:41:57 10° 19° (NNE) 2,162 ? -20.2°
Maximum altitude 22:46:40 67° 102° (ESE) 755 ? -20.6°
Enters shadow 22:47:48 49° 163° (SSE) 898 ? -20.7°
